Home   Weather   Stillwater   Past weeks

Flag for USA Past Weather in Stillwater, Minnesota, USA — Yesterday and Last 2 Weeks

Now
34 °F

Passing clouds.


Feels Like: 27 °F
Forecast: 30 / 51 °F
Wind: 9 mph from West

Location: St. Paul Downtown Holman Field

Current Time: Apr 28, 2017 at 1:24:50 am

Latest Report: Apr 28, 2017 at 12:53 am


Visibility: 10 mi

Pressure: 29.82 "Hg

Humidity: 73%

Dew Point: 26 °F

Location of StillwaterLocation

Past Weather in Stillwater — Graph

°F

Stillwater Temperature Yesterday

Maximum temperature yesterday: 36 °F (at 12:53 am)
Minimum temperature yesterday: 32 °F (at 8:53 am)
Average temperature yesterday: 34 °F

High & Low Weather Summary for the Past Weeks

 TemperatureHumidityPressure
High72 °F (Apr 15, 3:53 pm)100% (Apr 14, 11:53 pm)30.34 "Hg (Apr 14, 11:53 pm)
Low32 °F (Apr 27, 8:53 am)22% (Apr 24, 3:53 pm)29.48 "Hg (Apr 25, 3:53 am)
Average51 °F74%29.91 "Hg
* Reported Apr 12 11:53 pm — Apr 27 11:53 pm, Stillwater, Weather by CustomWeather, © 2017

Note: Actual official high and low records may vary slightly from our data, if they occured in-between our weather recording intervals... More about our weather records

Advertising

Stillwater Weather History for the Previous 24 Hours

Scroll right to see more
 ConditionsComfort  
Time TempWeatherWind HumidityBarometerVisibility
11:53 pm
Thu, Apr 27
36 °FOvercast.10 mph67%29.81 "Hg10 mi
10:53 pm35 °FOvercast.9 mph67%29.80 "Hg10 mi
9:53 pm35 °FOvercast.10 mph64%29.79 "Hg10 mi
9:19 pm34 °FOvercast.13 mph67%29.76 "Hg10 mi
8:53 pm34 °FOvercast.8 mph70%29.76 "Hg10 mi
7:53 pm34 °FOvercast.13 mph67%29.74 "Hg10 mi
6:53 pm34 °FOvercast.8 mph70%29.71 "Hg10 mi
5:53 pm34 °FOvercast.13 mph67%29.69 "Hg10 mi
4:53 pm34 °FOvercast.15 mph70%29.66 "Hg10 mi
3:53 pm34 °FMostly cloudy.13 mph73%29.65 "Hg10 mi
2:53 pm34 °FOvercast.12 mph73%29.64 "Hg10 mi
1:53 pm34 °FOvercast.13 mph73%29.62 "Hg10 mi
12:53 pm34 °FOvercast.16 mph73%29.61 "Hg10 mi
11:53 am34 °FOvercast.15 mph73%29.60 "Hg10 mi
11:35 am34 °FOvercast.15 mph70%29.59 "Hg10 mi
10:53 am33 °FOvercast.8 mph78%29.59 "Hg10 mi
9:53 am33 °FOvercast.14 mph82%29.58 "Hg10 mi
8:53 am32 °FMostly cloudy.14 mph88%29.56 "Hg10 mi
8:29 am33 °FFog.14 mph88%29.54 "Hg5 mi
7:53 am33 °FLight snow. Fog.9 mph92%29.56 "Hg4 mi
7:37 am33 °FMore clouds than sun.9 mph92%29.54 "Hg8 mi
7:21 am33 °FLight snow. Fog.12 mph92%29.54 "Hg3 mi
7:02 am33 °FLight snow. Fog.10 mph96%29.53 "Hg2 mi
6:53 am33 °FMore clouds than sun.9 mph96%29.54 "Hg9 mi
6:39 am33 °FMostly cloudy.9 mph96%29.53 "Hg8 mi
6:27 am33 °FLight snow. Fog.7 mph96%29.53 "Hg2 mi
6:15 am33 °FLight snow. Fog.7 mph96%29.53 "Hg2 mi
5:53 am33 °FLight snow. Fog.9 mph96%29.54 "Hg4 mi
5:09 am34 °FOvercast.8 mph97%29.53 "Hg10 mi
4:53 am34 °FLight snow. Fog.8 mph92%29.54 "Hg5 mi
4:25 am35 °FMostly cloudy.9 mph88%29.55 "Hg10 mi
3:53 am35 °FMostly cloudy.12 mph88%29.55 "Hg10 mi
3:10 am35 °FOvercast.10 mph85%29.55 "Hg10 mi
2:53 am35 °FOvercast.8 mph85%29.57 "Hg10 mi
1:53 am36 °FOvercast.10 mph85%29.58 "Hg10 mi
Weather by CustomWeather, © 2017

See weather overviewHow to use our weather pages